Flag for China Weather past 2 weeks in Lanzhou, Gansu, China

Now
55 °F

Clear.


Feels Like: 55 °F
Forecast: 52 / 87 °F
Wind: 1 mph from North

Location: Lanzhou / Zhongchuan

Current Time: Jul 25, 2014 at 7:32:05 AM

Latest Report: Jul 25, 2014 at 7:00 AM


Visibility: 10 mi

Pressure: 29.98 "Hg

Humidity: 88%

Dew point: 52 °F

Location of LanzhouLocation

Historic Weather in Lanzhou — Graph

°F

Lanzhou temperature yesterday

Maximum temperature yesterday: 77 °F (at 4:00 PM)
Minimum temperature yesterday: 52 °F (at 1:00 AM)
Average temperature yesterday: 63 °F

Past Weeks' High & Low Weather Summary

 TemperatureHumidityPressure
High86 °F (Jul 17, 5:00 PM)100% (Jul 12, 6:00 AM)30.21 "Hg (Jul 12, 6:00 AM)
Low50 °F (Jul 13, 6:00 AM)24% (Jul 17, 5:00 PM)29.80 "Hg (Jul 17, 5:00 PM)
Average66 °F67%30.00 "Hg
* Reported Jul 10 6:00 AM — Jul 25 6:00 AM, Lanzhou, Weather by CustomWeather, © 2014

Note: Actual official high and low records may vary slightly from our data, if they occured in-between our weather recording intervals... More about our weather records

Advertising

Lanzhou weather history for previous 24 hours

 ConditionsComfort  
Time TempWeatherWind HumidityBarometerVisibility
6:00 AM
Jul 25
54 °FClear.3 mph94%29.98 "Hg10 mi
5:00 AM55 °FClear.6 mph88%29.98 "Hg10 mi
4:00 AM55 °FClear.6 mph88%29.98 "Hg10 mi
3:00 AM55 °FClear.6 mph94%29.98 "Hg10 mi
2:00 AM57 °FClear.6 mph88%29.98 "Hg10 mi
1:00 AM59 °FClear.6 mph88%29.98 "Hg10 mi
12:00 AM59 °FClear.3 mph88%29.98 "Hg10 mi
11:00 PM
Jul 24
61 °FClear.6 mph83%29.98 "Hg10 mi
10:00 PM64 °FClear.1 mph73%29.98 "Hg10 mi
9:00 PM68 °FSunny.No wind69%29.98 "Hg10 mi
8:00 PM72 °FSunny.3 mph53%29.95 "Hg10 mi
7:00 PM77 °FSunny.3 mph42%29.95 "Hg10 mi
6:00 PM77 °FPassing clouds.3 mph39%29.95 "HgN/A
5:00 PM77 °FPassing clouds.8 mph42%29.95 "HgN/A
4:00 PM77 °FPassing clouds.8 mph42%29.98 "HgN/A
3:00 PM75 °FPassing clouds.6 mph50%30.01 "HgN/A
2:00 PM73 °FPassing clouds.8 mph50%30.01 "HgN/A
1:00 PM70 °FPassing clouds.8 mph69%30.04 "Hg4 mi
12:00 PM68 °FPassing clouds.6 mph69%30.07 "HgN/A
11:00 AM63 °FScattered clouds.6 mph77%30.07 "Hg4 mi
10:00 AM59 °FScattered clouds.1 mph88%30.07 "Hg4 mi
9:00 AM55 °FFog.3 mph100%30.09 "Hg2 mi
8:00 AM55 °FDrizzle. Fog.3 mph100%30.09 "Hg1 mi
7:00 AM55 °FFog.3 mph94%30.07 "Hg0 mi
Weather by CustomWeather, © 2014

See weather overviewHow to use our weather pages